Algona, IA

2:30 PM CDT on May 22, 2018 (GMT -0500)
Algona Municipal

Weather History for KAXA - November, 2012

Change the Weather History Date:

Monday, November 12, 2012

  Actual Average Record
Temperature  
Mean Temperature 24 °F -  
Max Temperature 30 °F 44 °F 66 °F (1999)
Min Temperature 19 °F 28 °F 5 °F (2013)
Degree Days  
Heating Degree Days 40    
Moisture  
Dew Point 16 °F    
Average Humidity 73    
Maximum Humidity 86    
Minimum Humidity 60    
Precipitation  
Precipitation 0.00 in - - ()
Sea Level Pressure  
Sea Level Pressure 30.15 in    
Wind  
Wind Speed 15 mph (West)    
Max Wind Speed 25 mph    
Max Gust Speed 32 mph    
Visibility 10 miles    
Events Snow    
Averages and records for this station are not official NWS values.
T = Trace of Precipitation, MM = Missing Value Source: NWS Daily Summary

Daily Weather History Graph

Daily Weather History Graph

Search for Another Location

Airport or City:

Astronomy

Nov. 12, 2012 Rise Set
Actual Time 7:06 AM CST 4:55 PM CST
Civil Twilight 6:36 AM CST 5:26 PM CST
Nautical Twilight 6:01 AM CST 6:00 PM CST
Astronomical Twilight 5:28 AM CST 6:33 PM CST
Moon 5:31 AM CST (11/12) 4:02 PM CST (11/12)
Length of Visible Light 10h 49m
Length of Day
9h 49m
Waning Crescent, 2% of the Moon is Illuminated
Nov 12
Waning Crescent
Nov 13
New
Nov 20
First Quarter
Nov 28
Full
Dec 6
Last Quarter

Hourly Weather History & Observations

Time (CST) Temp. Windchill Dew Point Humidity Pressure Visibility Wind Dir Wind Speed Gust Speed Precip Events Conditions
12:15 AM 19.4 °F 8.6 °F 14.0 °F 80% 30.03 in 10.0 mi West 9.2 mph - N/A   Scattered Clouds
12:55 AM 19.4 °F 6.6 °F 14.0 °F 80% 30.03 in 10.0 mi West 12.7 mph - N/A   Overcast
1:15 AM 21.2 °F 9.5 °F 15.8 °F 80% 30.02 in 10.0 mi West 11.5 mph - N/A   Overcast
1:35 AM 21.2 °F 8.9 °F 15.8 °F 80% 30.02 in 10.0 mi West 12.7 mph - N/A   Overcast
1:55 AM 21.2 °F 7.8 °F 14.0 °F 74% 30.02 in 10.0 mi West 15.0 mph - N/A   Overcast
2:15 AM 19.4 °F 6.0 °F 14.0 °F 80% 30.02 in 10.0 mi West 13.8 mph - N/A Snow Light Snow
2:35 AM 19.4 °F 5.5 °F 14.0 °F 80% 30.03 in 10.0 mi West 15.0 mph - N/A Snow Light Snow
2:55 AM 19.4 °F 4.5 °F 14.0 °F 80% 30.03 in 10.0 mi West 17.3 mph 23.0 mph N/A   Clear
3:55 AM 19.4 °F 6.6 °F 14.0 °F 80% 30.03 in 10.0 mi West 12.7 mph - N/A Snow Light Snow
4:15 AM 19.4 °F 6.6 °F 14.0 °F 80% 30.03 in 10.0 mi West 12.7 mph - N/A   Clear
4:35 AM 19.4 °F 7.2 °F 14.0 °F 80% 30.03 in 10.0 mi West 11.5 mph 18.4 mph N/A Snow Light Snow
4:55 AM 19.4 °F 4.5 °F 14.0 °F 80% 30.03 in 10.0 mi West 17.3 mph - N/A   Clear
5:15 AM 19.4 °F 6.0 °F 14.0 °F 80% 30.04 in 10.0 mi West 13.8 mph - N/A   Clear
5:35 AM 19.4 °F 5.5 °F 14.0 °F 80% 30.03 in 10.0 mi West 15.0 mph 20.7 mph N/A   Clear
5:55 AM 19.4 °F 4.1 °F 14.0 °F 80% 30.04 in 10.0 mi West 18.4 mph - N/A   Clear
6:15 AM 19.4 °F 4.5 °F 14.0 °F 80% 30.04 in 10.0 mi West 17.3 mph 23.0 mph N/A   Clear
6:55 AM 19.4 °F 5.0 °F 14.0 °F 80% 30.05 in 10.0 mi West 16.1 mph - N/A   Overcast
7:15 AM 21.2 °F 7.3 °F 14.0 °F 74% 30.06 in 10.0 mi West 16.1 mph 24.2 mph N/A Snow Light Snow
7:35 AM 21.2 °F 6.8 °F 15.8 °F 80% 30.06 in 10.0 mi West 17.3 mph - N/A   Overcast
7:55 AM 21.2 °F 5.6 °F 15.8 °F 80% 30.07 in 10.0 mi West 20.7 mph - N/A Snow Light Snow
8:15 AM 23.0 °F 8.0 °F 15.8 °F 74% 30.07 in 10.0 mi West 20.7 mph 26.5 mph N/A Snow Light Snow
8:35 AM 23.0 °F 8.3 °F 15.8 °F 74% 30.08 in 10.0 mi West 19.6 mph 29.9 mph N/A Snow Light Snow
8:55 AM 23.0 °F 8.0 °F 15.8 °F 74% 30.08 in 10.0 mi West 20.7 mph 26.5 mph N/A Snow Light Snow
9:15 AM 23.0 °F 9.6 °F 17.6 °F 80% 30.08 in 10.0 mi West 16.1 mph 25.3 mph N/A   Overcast
9:35 AM 24.8 °F 9.6 °F 17.6 °F 74% 30.09 in 10.0 mi WNW 23.0 mph - N/A   Overcast
9:55 AM 24.8 °F 9.3 °F 17.6 °F 74% 30.09 in 10.0 mi WNW 24.2 mph - N/A   Overcast
10:15 AM 24.8 °F 11.5 °F 17.6 °F 74% 30.10 in 10.0 mi West 17.3 mph 25.3 mph N/A   Overcast
10:35 AM 26.6 °F 12.0 °F 17.6 °F 69% 30.10 in 10.0 mi West 23.0 mph 29.9 mph N/A   Overcast
10:55 AM 26.6 °F 11.4 °F 17.6 °F 69% 30.11 in 10.0 mi West 25.3 mph - N/A   Overcast
11:15 AM 26.6 °F 13.1 °F 17.6 °F 69% 30.11 in 10.0 mi West 19.6 mph 28.8 mph N/A   Overcast
11:35 AM 28.4 °F 14.4 °F 17.6 °F 64% 30.11 in 10.0 mi West 23.0 mph - N/A   Overcast
11:55 AM 30.2 °F 16.2 °F 17.6 °F 60% 30.11 in 10.0 mi West 25.3 mph - N/A   Overcast
12:15 PM 30.2 °F 16.8 °F 17.6 °F 60% 30.11 in 10.0 mi West 23.0 mph - N/A Snow Light Snow
12:35 PM 30.2 °F 16.8 °F 17.6 °F 60% 30.12 in 10.0 mi WNW 23.0 mph 31.1 mph N/A Snow Light Snow
12:55 PM 30.2 °F 17.4 °F 17.6 °F 60% 30.12 in 10.0 mi West 20.7 mph 29.9 mph N/A   Overcast
1:15 PM 30.2 °F 16.8 °F 17.6 °F 60% 30.12 in 10.0 mi WNW 23.0 mph 32.2 mph N/A Snow Light Snow
1:35 PM 30.2 °F 17.4 °F 17.6 °F 60% 30.13 in - WNW 20.7 mph 27.6 mph N/A Snow Light Snow
1:55 PM 30.2 °F 17.4 °F 17.6 °F 60% 30.14 in 10.0 mi WNW 20.7 mph 29.9 mph N/A   Overcast
2:15 PM 30.2 °F 17.4 °F 17.6 °F 60% 30.14 in 10.0 mi WNW 20.7 mph 29.9 mph N/A   Overcast
2:35 PM 30.2 °F 16.2 °F 17.6 °F 60% 30.15 in 10.0 mi West 25.3 mph 32.2 mph N/A   Overcast
2:55 PM 30.2 °F 17.8 °F 17.6 °F 60% 30.16 in 10.0 mi WNW 19.6 mph 28.8 mph N/A   Overcast
3:15 PM 30.2 °F 17.1 °F 17.6 °F 60% 30.16 in 10.0 mi WNW 21.9 mph - N/A   Overcast
3:35 PM 30.2 °F 17.8 °F 17.6 °F 60% 30.18 in 10.0 mi WNW 19.6 mph 26.5 mph N/A Snow Light Snow
3:55 PM 30.2 °F 17.4 °F 17.6 °F 60% 30.19 in 10.0 mi WNW 20.7 mph 27.6 mph N/A   Scattered Clouds
4:35 PM 30.2 °F 20.8 °F 17.6 °F 60% 30.20 in 10.0 mi WNW 11.5 mph 21.9 mph N/A   Scattered Clouds
4:55 PM 28.4 °F 16.6 °F 17.6 °F 64% 30.21 in 10.0 mi WNW 16.1 mph 25.3 mph N/A   Partly Cloudy
5:15 PM 28.4 °F 18.0 °F 17.6 °F 64% 30.22 in 10.0 mi WNW 12.7 mph - N/A   Clear
5:35 PM 26.6 °F 18.2 °F 17.6 °F 69% 30.22 in 10.0 mi WNW 8.1 mph - N/A   Clear
5:55 PM 26.6 °F 17.5 °F 17.6 °F 69% 30.23 in 10.0 mi NW 9.2 mph - N/A   Clear
6:15 PM 26.6 °F 18.2 °F 17.6 °F 69% 30.23 in 10.0 mi WNW 8.1 mph - N/A   Clear
6:35 PM 24.8 °F 16.1 °F 17.6 °F 74% 30.24 in 10.0 mi WNW 8.1 mph - N/A   Clear
6:55 PM 24.8 °F 15.3 °F 17.6 °F 74% 30.25 in 10.0 mi WNW 9.2 mph - N/A   Clear
7:15 PM 24.8 °F 15.3 °F 17.6 °F 74% 30.26 in 10.0 mi West 9.2 mph - N/A   Clear
7:35 PM 24.8 °F 15.3 °F 17.6 °F 74% 30.26 in 10.0 mi West 9.2 mph - N/A   Clear
7:55 PM 23.0 °F 14.7 °F 17.6 °F 80% 30.27 in 10.0 mi West 6.9 mph - N/A   Clear
8:15 PM 23.0 °F 13.1 °F 17.6 °F 80% 30.28 in 10.0 mi West 9.2 mph - N/A   Clear
8:35 PM 23.0 °F 13.1 °F 17.6 °F 80% 30.28 in 10.0 mi West 9.2 mph - N/A   Clear
8:55 PM 23.0 °F 14.7 °F 17.6 °F 80% 30.29 in 10.0 mi West 6.9 mph - N/A   Clear
9:15 PM 23.0 °F 13.9 °F 17.6 °F 80% 30.29 in 10.0 mi West 8.1 mph - N/A   Clear
9:35 PM 23.0 °F 13.9 °F 17.6 °F 80% 30.30 in 10.0 mi West 8.1 mph - N/A   Clear
9:55 PM 21.2 °F 11.7 °F 17.6 °F 86% 30.31 in 10.0 mi WSW 8.1 mph - N/A   Clear
10:15 PM 21.2 °F 11.7 °F 17.6 °F 86% 30.31 in 10.0 mi WSW 8.1 mph - N/A   Clear
10:35 PM 19.4 °F 9.5 °F 15.8 °F 86% 30.31 in 10.0 mi West 8.1 mph - N/A   Clear
10:55 PM 19.4 °F 11.5 °F 15.8 °F 86% 30.32 in 10.0 mi WSW 5.8 mph - N/A   Clear
11:15 PM 21.2 °F 12.6 °F 15.8 °F 80% 30.32 in 10.0 mi SW 6.9 mph - N/A   Clear
11:35 PM 19.4 °F 10.4 °F 15.8 °F 86% 30.31 in 10.0 mi SW 6.9 mph - N/A   Clear
11:55 PM 21.2 °F 11.7 °F 15.8 °F 80% 30.32 in 10.0 mi SW 8.1 mph - N/A   Clear